Flag for Canada Weather past 2 weeks in Drummondville, Quebec, Canada

Now
79 °F

Warm.


Feels Like: 82 °F
Forecast: N/A
Wind: 13 mph from Southwest

Location: Nicolet

Current Time: May 27, 2015 at 6:24:04 PM

Latest Report: May 27, 2015 at 5:00 PM


Visibility: N/A

Pressure: 29.85 "Hg

Humidity: 69%

Dew point: 68 °F

Location of DrummondvilleLocation

Historic Weather in Drummondville — Graph

°F

Drummondville temperature yesterday

Maximum temperature yesterday: 78 °F (at 8:00 PM)
Minimum temperature yesterday: 58 °F (at 12:00 AM)
Average temperature yesterday: 69 °F

Past Weeks' High & Low Weather Summary

 TemperatureHumidityPressure
High79 °F (May 27, 5:00 PM)100% (May 18, 11:00 PM)30.36 "Hg (May 18, 11:00 PM)
Low38 °F (May 23, 6:00 AM)30% (May 20, 5:00 PM)29.52 "Hg (May 12, 6:00 PM)
Average59 °F64%29.99 "Hg
* Reported May 12 5:00 PM — May 27 5:00 PM, Drummondville, Weather by CustomWeather, © 2015

Note: Actual official high and low records may vary slightly from our data, if they occured in-between our weather recording intervals... More about our weather records

Advertising

Drummondville weather history for previous 24 hours

 ConditionsComfort  
Time TempWeatherWind HumidityBarometerVisibility
5:00 PM
Wed, May 27
79 °FWarm.13 mph69%29.85 "HgN/A
4:00 PM77 °FWarm.12 mph71%29.86 "HgN/A
3:00 PM78 °FWarm.17 mph70%29.87 "HgN/A
2:00 PM78 °FWarm.14 mph77%29.88 "HgN/A
1:00 PM75 °FMild.12 mph85%29.89 "HgN/A
12:00 PM78 °FWarm.15 mph72%29.91 "HgN/A
11:00 AM78 °FWarm.13 mph72%29.92 "HgN/A
10:00 AM78 °FWarm.12 mph73%29.93 "HgN/A
9:00 AM76 °FMild.8 mph79%29.93 "HgN/A
8:00 AM71 °FMild.6 mph83%29.96 "HgN/A
7:00 AM67 °FMild.5 mph91%29.97 "HgN/A
6:00 AM67 °FMild.2 mph92%29.97 "HgN/A
5:00 AM68 °FMild.5 mph76%29.96 "HgN/A
4:00 AM68 °FMild.3 mph84%29.96 "HgN/A
3:00 AM64 °FMild.2 mph89%29.96 "HgN/A
2:00 AM65 °FMild.2 mph90%29.98 "HgN/A
1:00 AM67 °FMild.1 mph83%29.97 "HgN/A
12:00 AM72 °FMild.5 mph72%29.96 "HgN/A
11:00 PM
Tue, May 26
73 °FMild.9 mph71%29.96 "HgN/A
10:00 PM74 °FMild.10 mph69%29.96 "HgN/A
9:00 PM75 °FMild.7 mph71%29.94 "HgN/A
8:00 PM78 °FWarm.9 mph66%29.93 "HgN/A
7:00 PM76 °FMild.10 mph66%29.93 "HgN/A
6:00 PM77 °FMild.13 mph69%29.93 "HgN/A
Weather by CustomWeather, © 2015

See weather overviewHow to use our weather pages